Gullfax (Platform),

8:24 AM CEST on August 21, 2017 (GMT +0200)
Gullfax (Platform)

Weather History for ENGC - February, 2013

Change the Weather History Date:

Friday, February 15, 2013

  Actual Average Record
Temperature  
Mean Temperature 40 °F -  
Max Temperature 44 °F 42 °F 48 °F (2004)
Min Temperature 37 °F 38 °F 33 °F (2011)
Degree Days  
Heating Degree Days 24    
Moisture  
Dew Point 37 °F    
Average Humidity 88    
Maximum Humidity 100    
Minimum Humidity 76    
Precipitation  
Precipitation 0.00 in - - ()
Sea Level Pressure  
Sea Level Pressure 29.83 in    
Wind  
Wind Speed 41 mph ()    
Max Wind Speed 55 mph    
Max Gust Speed -    
Visibility 4.8 miles    
Events Rain    
Averages and records for this station are not official NWS values.
T = Trace of Precipitation, MM = Missing Value Source: Averaged Metar Reports

Daily Weather History Graph

Daily Weather History Graph

Search for Another Location

Airport or City:

Trip Planner

Search our weather history database for the weather conditions in past years. The results will help you decide how hot, cold, wet, or windy it might be!

Date:

Astronomy

Feb. 15, 2013 Rise Set
Actual Time 8:33 AM CET 5:39 PM CET
Civil Twilight 7:48 AM CET 6:25 PM CET
Nautical Twilight 6:57 AM CET 7:15 PM CET
Astronomical Twilight 6:08 AM CET 8:05 PM CET
Moon 9:17 AM CET (2/15) 12:03 AM CET (2/15)
Length of Visible Light 10h 37m
Length of Day
9h 06m
Waxing Crescent, 28% of the Moon is Illuminated
Feb 15
Waxing Crescent
Feb 17
First Quarter
Feb 25
Full
Mar 4
Last Quarter
Mar 11
New

Hourly Weather History & Observations

Time (CET) Temp. Windchill Dew Point Humidity Pressure Visibility Wind Dir Wind Speed Gust Speed Precip Events Conditions
12:50 AM 37.4 °F 21.8 °F 33.8 °F 87% 29.77 in 3.1 mi SSE 51.8 mph - N/A   Light Drizzle
1:50 AM 37.4 °F 21.5 °F 33.8 °F 87% 29.80 in 4.3 mi South 55.2 mph - N/A Rain Light Rain
2:50 AM 37.4 °F 22.0 °F 33.8 °F 87% 29.80 in 3.7 mi SSE 50.6 mph - N/A   Light Drizzle
3:50 AM 37.4 °F 22.1 °F 33.8 °F 87% 29.80 in 5.0 mi South 49.5 mph - N/A   Light Drizzle
4:50 AM 37.4 °F 21.7 °F 33.8 °F 87% 29.80 in 4.3 mi SSE 52.9 mph - N/A   Light Drizzle
5:50 AM 37.4 °F 22.0 °F 33.8 °F 87% 29.80 in 5.0 mi South 50.6 mph - N/A Rain Light Rain
6:50 AM 37.4 °F 22.2 °F 33.8 °F 87% 29.80 in 5.6 mi South 48.3 mph - N/A Rain Light Rain
7:20 AM 37.4 °F 22.0 °F 32.0 °F 81% 29.80 in 6.2 mi South 50.6 mph - N/A   Overcast
7:50 AM 37.4 °F 21.8 °F 33.8 °F 87% 29.80 in 6.2 mi SSE 51.8 mph - N/A Rain Light Rain
8:20 AM 37.4 °F 22.0 °F 33.8 °F 87% 29.80 in 5.0 mi SSE 50.6 mph - N/A   Mostly Cloudy
8:50 AM 37.4 °F 22.1 °F 33.8 °F 87% 29.80 in 3.7 mi South 49.5 mph - N/A Rain Light Rain
9:20 AM 37.4 °F 21.8 °F 33.8 °F 87% 29.80 in 5.0 mi SSE 51.8 mph - N/A Rain Light Rain
9:50 AM 37.4 °F 22.0 °F 33.8 °F 87% 29.80 in 5.6 mi SSE 50.6 mph - N/A Rain Light Rain
10:20 AM 37.4 °F 22.0 °F 33.8 °F 87% 29.80 in 4.3 mi SSE 50.6 mph - N/A Rain Light Rain
10:50 AM 37.4 °F 22.0 °F 35.6 °F 93% 29.80 in 3.7 mi SSE 50.6 mph - N/A Rain Light Rain
11:20 AM 37.4 °F 22.0 °F 35.6 °F 93% 29.80 in 3.7 mi SSE 50.6 mph - N/A Rain Light Rain
11:50 AM 37.4 °F 21.8 °F 35.6 °F 93% 29.80 in 3.7 mi SSE 51.8 mph - N/A Rain Light Rain
12:50 PM 39.2 °F 24.4 °F 37.4 °F 93% 29.80 in 3.1 mi South 51.8 mph - N/A Rain Light Rain
1:20 PM 37.4 °F 21.6 °F 35.6 °F 93% 29.80 in 3.1 mi South 54.1 mph - N/A Rain Light Rain
1:50 PM 37.4 °F 22.0 °F 35.6 °F 93% 29.77 in 1.9 mi South 50.6 mph - N/A Rain Light Rain
2:15 PM 39.2 °F 24.2 °F 37.4 °F 93% 29.77 in 1.6 mi South 54.1 mph - N/A Rain Light Rain
2:50 PM 39.2 °F 24.4 °F 37.4 °F 93% 29.77 in 3.7 mi South 51.8 mph - N/A Rain Light Rain
3:20 PM 39.2 °F 24.3 °F 37.4 °F 93% 29.77 in 3.7 mi South 52.9 mph - N/A Rain Light Rain
3:50 PM 41.0 °F 27.3 °F 39.2 °F 93% 29.74 in 3.7 mi South 48.3 mph - N/A Rain Light Rain
4:50 PM 42.8 °F 31.9 °F 41.0 °F 93% 29.80 in 5.6 mi SSW 32.2 mph - N/A Rain Light Rain
5:20 PM 42.8 °F 32.3 °F 41.0 °F 93% 29.80 in 6.2 mi SSW 29.9 mph - N/A   Mostly Cloudy
5:50 PM 42.8 °F 33.1 °F 41.0 °F 93% 29.83 in 6.2 mi SSW 25.3 mph - N/A   Mostly Cloudy
6:20 PM 42.8 °F 32.5 °F 41.0 °F 93% 29.86 in 5.0 mi SW 28.8 mph - N/A Rain Light Rain
6:50 PM 42.8 °F 34.5 °F 41.0 °F 93% 29.89 in 5.0 mi WSW 18.4 mph - N/A Rain Light Rain Showers
7:20 PM 42.8 °F 34.8 °F 42.8 °F 100% 29.89 in 5.6 mi West 17.3 mph - N/A Rain Light Rain
7:50 PM 44.6 °F 36.1 °F 39.2 °F 81% 29.89 in 6.2 mi West 21.9 mph - N/A   Mostly Cloudy
8:20 PM 44.6 °F 36.6 °F 39.2 °F 81% 29.92 in 6.2 mi West 19.6 mph - N/A   Mostly Cloudy
8:50 PM 44.6 °F 36.4 °F 37.4 °F 76% 29.92 in 6.2 mi West 20.7 mph - N/A   Mostly Cloudy
9:20 PM 44.6 °F 36.9 °F 37.4 °F 76% 29.95 in 6.2 mi West 18.4 mph - N/A   Scattered Clouds
9:50 PM 44.6 °F 37.4 °F 39.2 °F 81% 29.95 in 6.2 mi West 16.1 mph - N/A   Partly Cloudy
10:50 PM 44.6 °F 36.6 °F 37.4 °F 76% 29.98 in 6.2 mi WSW 19.6 mph - N/A   Scattered Clouds
11:50 PM 44.6 °F 37.2 °F 37.4 °F 76% 29.98 in 6.2 mi SW 17.3 mph - N/A   Partly Cloudy